User: anonymous   Login
Location: Unspecified
(0.0000°N, 0.0000°E)
Time: 12:13:31
(UTC+00:00)
Language:

UHF F/O F3 - Orbit

View from above orbital plane
View from above orbital plane
View from above satellite
View from above satellite

Ground track
Ground track

The orbit data is extracted from the following two-line orbital elements,

1 23132U 94035A   19110.33583573  .00000077  00000-0  00000+0 0  9994
2 23132  11.2910  21.4976 0005302 318.5879 204.2751  1.00361953105462
Epoch (UTC): 20 April 2019 08:03:36
Eccentricity: 0.0005302
inclination: 11.2910°
perigee height: 35738 km
apogee height: 35783 km
right ascension of ascending node: 21.4976°
argument of perigee: 318.5879°
revolutions per day: 1.00361953
mean anomaly at epoch: 204.2751°
orbit number at epoch: 10546

The dashed part of the orbit path shows where the satellite is in the earth's shadow,  

DLR